Home   Weather   Grudziądz   Past weeks

Flag for Poland Past Weather in Grudziądz, Poland — Yesterday and Last 2 Weeks

Now
74 °F

Scattered clouds.


Feels Like: 77 °F
Forecast: 55 / 69 °F
Wind: 1 mph from Southeast

Location: Torun

Current Time: May 30, 2017 at 1:22:48 pm

Latest Report: May 30, 2017 at 12:00 pm


Visibility: 12 mi

Pressure: 29.90 "Hg

Humidity: 55%

Dew Point: 56 °F

Location of GrudziądzLocation

Past Weather in Grudziądz — Graph

°F

Grudziądz Temperature Yesterday

Maximum temperature yesterday: 83 °F (at 2:00 pm)
Minimum temperature yesterday: 62 °F (at 11:00 pm)
Average temperature yesterday: 72 °F

High & Low Weather Summary for the Past Weeks

 TemperatureHumidityPressure
High83 °F (May 29, 2:00 pm)100% (May 25, 4:00 am)30.42 "Hg (May 25, 4:00 am)
Low44 °F (May 17, 5:00 am)26% (May 19, 3:00 pm)29.85 "Hg (May 29, 6:00 pm)
Average63 °F62%30.09 "Hg
* Reported May 15 11:00 am — May 30 11:00 am, Grudziądz. Weather by CustomWeather, © 2017

Note: Actual official high and low records may vary slightly from our data, if they occured in-between our weather recording intervals... More about our weather records

Advertising

Grudziądz Weather History for the Previous 24 Hours

Scroll right to see more
 ConditionsComfort  
Time TempWeatherWind HumidityBarometerVisibility
11:00 am
Tue, May 30
71 °FPartly sunny.1 mph61%29.90 "Hg11 mi
10:00 am67 °FPartly sunny.1 mph66%29.91 "Hg11 mi
9:00 am64 °FOvercast.1 mph72%29.92 "Hg7 mi
8:00 am62 °FOvercast.2 mph74%29.93 "Hg9 mi
7:00 am61 °FPartly sunny.2 mph79%29.92 "Hg8 mi
6:00 am58 °FFog.1 mph87%29.92 "Hg4 mi
5:00 am58 °FFog.1 mph89%29.91 "Hg5 mi
4:00 am57 °FFog.1 mph92%29.92 "Hg4 mi
3:00 am54 °FFog.1 mph94%29.93 "Hg4 mi
2:00 am56 °FFog.1 mph92%29.93 "Hg4 mi
1:00 am57 °FPassing clouds.1 mph90%29.92 "Hg7 mi
12:00 am60 °FPassing clouds.1 mph86%29.92 "Hg9 mi
11:00 pm
Mon, May 29
62 °FPassing clouds.1 mph80%29.91 "Hg19 mi
10:00 pm65 °FPassing clouds.2 mph73%29.91 "Hg22 mi
9:00 pm68 °FPassing clouds.2 mph68%29.90 "Hg19 mi
8:00 pm72 °FPartly sunny.3 mph61%29.88 "Hg19 mi
7:00 pm77 °FPartly sunny.3 mph41%29.86 "Hg28 mi
6:00 pm79 °FOvercast.5 mph37%29.85 "Hg19 mi
5:00 pm82 °FOvercast.5 mph34%29.85 "Hg28 mi
4:00 pm83 °FOvercast.5 mph29%29.85 "Hg22 mi
3:00 pm83 °FPartly sunny.6 mph29%29.86 "Hg25 mi
2:00 pm83 °FScattered clouds.3 mph36%29.87 "Hg14 mi
1:00 pm82 °FScattered clouds.3 mph36%29.88 "Hg22 mi
Weather by CustomWeather, © 2017

See weather overviewHow to use our weather pages